Location: St. Louis
(38.6270°N, 90.1994°W)
Time: 22:42:45
(UTC-06:00)

Vanguard 1 - Pass Details

Date: 07 December 2021
Orbit: 652 x 3830 km, 34.2° (Epoch: 21 January)

Event Time Altitude Azimuth Distance (km) Brightness Sun altitude
Rises 04:37:15 0° 284° (WNW) 7,976 - -28.2°
Reaches altitude 10° 04:43:05 10° 281° (W) 6,881 - -27.1°
Exits shadow 04:53:15 31° 267° (W) 4,959 13.0 -25.1°
Maximum altitude 05:03:39 50° 215° (SW) 3,510 12.6 -23.1°
Drops below altitude 10° 05:16:37 10° 144° (SE) 4,504 14.1 -20.6°
Sets 05:19:35 0° 138° (SE) 5,152 14.7 -20.1°
